EW7598 Weather Reports


Display with metric or nautical units.
time (UTC)temp
F
wind
direction
speed
MPH
gust
MPH
rain 1hr
in
rain 24hr
in
rain mn
in
humidity
%
barometer
mb
20260504171527 72 218 0.0 2.0 0.00 0.00 0.00 38 1015.9
20260504140106 63 313 0.0 2.0 0.00 0.00 0.00 59 1017.3
20260504081503 42 212 0.0 0.0 0.00 0.00 0.00 84 1017.2
20260504044544 45 212 0.0 0.0 0.00 0.00 0.00 76 1017.4
20260504043039 45 212 0.0 0.0 0.00 0.00 0.00 75 1017.4
20260504041539 46 212 0.0 0.0 0.00 0.00 0.00 73 1017.5
20260504040038 45 265 0.0 0.0 0.00 0.00 0.00 77 1017.5
20260504034535 45 265 0.0 0.0 0.00 0.00 0.00 78 1017.6
20260504033047 45 265 0.0 0.0 0.00 0.00 0.00 78 1017.5
20260504031535 45 265 0.0 0.0 0.00 0.00 0.00 76 1017.6
20260504030033 46 265 0.0 0.0 0.00 0.00 0.00 76 1017.5
20260504024543 47 265 0.0 0.0 0.00 0.00 0.00 74 1017.4
20260504023032 48 265 0.0 0.0 0.00 0.00 0.00 68 1017.3
20260504021531 48 265 0.0 0.0 0.00 0.00 0.00 66 1017.1
20260504020033 48 265 0.0 0.0 0.00 0.00 0.00 66 1017.0
20260504014530 49 265 0.0 0.0 0.00 0.00 0.00 67 1016.9
20260504013029 49 265 0.0 0.0 0.00 0.00 0.00 65 1016.9
20260504011528 50 265 0.0 0.0 0.00 0.00 0.00 64 1016.9
20260504010030 51 265 0.0 0.0 0.00 0.00 0.00 61 1016.7
20260504004539 52 265 0.0 0.0 0.00 0.00 0.00 57 1016.6
20260504003026 53 265 0.0 0.0 0.00 0.00 0.00 54 1016.4
20260504001526 54 265 0.0 0.0 0.00 0.00 0.00 52 1016.4
20260504000027 56 265 0.0 0.0 0.00 0.00 0.00 46 1016.3
20260503234525 57 265 0.0 0.0 0.00 0.00 0.00 43 1016.3
20260503233030 58 265 0.0 0.0 0.00 0.00 0.00 40 1016.1
20260503231525 59 265 0.0 0.0 0.00 0.00 0.00 38 1016.1
20260503230024 60 265 0.0 0.0 0.00 0.00 0.00 37 1016.2
20260503224523 61 265 0.0 1.0 0.00 0.00 0.00 35 1016.3
20260503223022 62 329 0.0 1.0 0.00 0.00 0.00 33 1016.5
20260503221522 61 255 0.0 2.0 0.00 0.00 0.00 33 1016.7
20260503220021 61 252 0.0 1.0 0.00 0.00 0.00 34 1016.7
20260503214519 61 208 0.0 3.0 0.00 0.00 0.00 33 1016.7
20260503213021 61 295 0.0 3.0 0.00 0.00 0.00 33 1016.8
20260503211522 62 269 0.0 3.0 0.00 0.00 0.00 31 1016.9
20260503210018 62 284 2.0 7.0 0.00 0.00 0.00 31 1017.0
20260503204516 61 250 0.0 6.0 0.00 0.00 0.00 31 1017.1
20260503203017 62 352 0.0 3.0 0.00 0.00 0.00 30 1017.2
20260503201516 62 266 0.0 9.0 0.00 0.00 0.00 30 1017.4
20260503200014 61 257 0.0 3.0 0.00 0.00 0.00 32 1017.7
20260503194512 61 233 0.0 4.0 0.00 0.00 0.00 32 1017.8
20260503193029 61 266 0.0 4.0 0.00 0.00 0.00 32 1017.9
20260503191512 61 255 1.0 3.0 0.00 0.00 0.00 30 1018.2
20260503190022 60 232 0.0 4.0 0.00 0.00 0.00 33 1018.3
20260503184509 61 226 2.0 4.0 0.00 0.00 0.00 34 1018.4
20260503183006 60 214 0.0 8.0 0.00 0.00 0.00 34 1018.7
20260503181505 60 262 0.0 7.0 0.00 0.00 0.00 35 1018.9
20260503180004 59 23 2.0 10.0 0.00 0.00 0.00 36 1018.9
20260503174502 59 270 2.0 12.0 0.00 0.00 0.00 35 1019.0
20260503173003 59 22 0.0 7.0 0.00 0.00 0.00 37 1019.2